QPF
0.09 0.06 0.05 0.07 0.06 0.06 0.05 0.06 0.07 0.09 0.11 0.12 0.10 0.08 0.06 0.06 0.07 0.08 0.08 0.12 0.12 0.08 0.06 0.07 0.08 0.07 0.08 0.09 0.09 0.08 0.07 0.07 0.12 0.12 0.08 0.08 0.08 0.06 0.05 0.06 0.07 0.12 0.09
0.06 0.04 0.03 0.04 0.05 0.07 0.06 0.06 0.08 0.10 0.09 0.08 0.07 0.06 0.06 0.07 0.07 0.07 0.10 0.11 0.08 0.06 0.07 0.07 0.08 0.09 0.08 0.10 0.08 0.06 0.05 0.05 0.07 0.07 0.05 0.07 0.06 0.04 0.04 0.06 0.10 0.13 0.09
0.05 0.03 0.02 0.04 0.05 0.07 0.07 0.08 0.10 0.10 0.09 0.08 0.05 0.04 0.05 0.05 0.06 0.08 0.09 0.07 0.06 0.06 0.06 0.06 0.08 0.08 0.08 0.11 0.07 0.06 0.05 0.06 0.04 0.04 0.05 0.05 0.03 0.03 0.04 0.04 0.05 0.06 0.06
0.08 0.05 0.03 0.04 0.06 0.08 0.08 0.08 0.09 0.09 0.09 0.06 0.04 0.04 0.04 0.04 0.04 0.05 0.06 0.05 0.06 0.06 0.07 0.06 0.08 0.08 0.10 0.12 0.07 0.04 0.04 0.04 0.03 0.05 0.10 0.07 0.02 0.02 0.04 0.05 0.05 0.05 0.05
0.09 0.06 0.05 0.04 0.07 0.08 0.08 0.08 0.10 0.09 0.07 0.05 0.05 0.04 0.04 0.04 0.04 0.04 0.04 0.05 0.05 0.06 0.07 0.06 0.07 0.08 0.12 0.11 0.07 0.04 0.03 0.03 0.03 0.05 0.07 0.06 0.04 0.03 0.03 0.04 0.04 0.04 0.05
0.08 0.08 0.06 0.06 0.08 0.09 0.10 0.09 0.09 0.08 0.05 0.04 0.04 0.04 0.04 0.03 0.04 0.05 0.06 0.05 0.05 0.05 0.07 0.07 0.10 0.11 0.10 0.07 0.04 0.03 0.02 0.02 0.04 0.06 0.05 0.04 0.05 0.02 0.02 0.03 0.03 0.03 0.03
0.10 0.12 0.10 0.08 0.07 0.09 0.10 0.09 0.06 0.05 0.04 0.03 0.03 0.04 0.04 0.03 0.04 0.05 0.06 0.05 0.04 0.05 0.07 0.09 0.14 0.10 0.07 0.05 0.04 0.02 0.01 0.01 0.04 0.06 0.05 0.05 0.05 0.02 0.01 0.02 0.03 0.03 0.03
0.09 0.09 0.08 0.08 0.07 0.08 0.10 0.07 0.05 0.03 0.04 0.04 0.04 0.05 0.04 0.03 0.04 0.05 0.06 0.05 0.05 0.05 0.06 0.12 0.12 0.06 0.03 0.03 0.03 0.01 0.01 0.01 0.03 0.05 0.05 0.04 0.03 0.02 0.02 0.02 0.02 0.02 0.02
0.08 0.08 0.09 0.10 0.09 0.10 0.11 0.06 0.04 0.04 0.04 0.04 0.04 0.04 0.03 0.02 0.03 0.04 0.05 0.04 0.05 0.06 0.09 0.12 0.09 0.04 0.02 0.03 0.02 0.01 0.01 0.02 0.04 0.04 0.04 0.05 0.03 0.02 0.02 0.02 0.02 0.02 0.02
0.08 0.06 0.09 0.12 0.10 0.11 0.09 0.05 0.04 0.04 0.03 0.02 0.02 0.02 0.02 0.01 0.01 0.02 0.03 0.03 0.04 0.06 0.06 0.06 0.05 0.03 0.02 0.02 0.02 0.02 0.02 0.02 0.03 0.05 0.05 0.04 0.02 0.02 0.02 0.02 0.03 0.03 0.03
0.06 0.05 0.06 0.07 0.08 0.09 0.07 0.05 0.06 0.05 0.03 0.03 0.03 0.02 0.03 0.03 0.02 0.02 0.01 0.01 0.02 0.04 0.04 0.04 0.03 0.03 0.02 0.02 0.02 0.03 0.04 0.04 0.04 0.07 0.07 0.03 0.02 0.02 0.02 0.03 0.04 0.04 0.03
0.08 0.09 0.07 0.05 0.05 0.07 0.05 0.06 0.09 0.07 0.06 0.07 0.05 0.04 0.06 0.07 0.08 0.04 0.03 0.02 0.02 0.03 0.03 0.03 0.03 0.04 0.04 0.04 0.05 0.06 0.07 0.08 0.07 0.07 0.08 0.04 0.02 0.02 0.02 0.03 0.03 0.03 0.04
0.09 0.08 0.07 0.06 0.07 0.07 0.08 0.07 0.07 0.09 0.09 0.09 0.07 0.06 0.07 0.06 0.06 0.04 0.04 0.04 0.03 0.02 0.04 0.04 0.03 0.04 0.04 0.06 0.07 0.05 0.04 0.03 0.04 0.05 0.06 0.03 0.01 0.01 0.01 0.02 0.03 0.02 0.03
0.08 0.07 0.06 0.05 0.06 0.05 0.06 0.08 0.08 0.08 0.08 0.08 0.06 0.05 0.06 0.06 0.06 0.06 0.06 0.05 0.05 0.04 0.04 0.05 0.05 0.06 0.07 0.06 0.05 0.04 0.02 0.02 0.05 0.06 0.04 0.02 0.01 0.01 0.01 0.02 0.02 0.02 0.03
0.07 0.05 0.04 0.04 0.05 0.05 0.06 0.09 0.07 0.08 0.08 0.08 0.06 0.04 0.03 0.04 0.04 0.04 0.04 0.04 0.04 0.05 0.05 0.06 0.06 0.07 0.07 0.05 0.03 0.03 0.03 0.04 0.07 0.06 0.06 0.02 0.01 0.00 0.01 0.01 0.01 0.02 0.03
0.07 0.06 0.06 0.05 0.06 0.06 0.07 0.09 0.09 0.07 0.07 0.07 0.06 0.03 0.02 0.02 0.03 0.03 0.04 0.04 0.04 0.05 0.05 0.05 0.05 0.07 0.06 0.05 0.04 0.04 0.04 0.05 0.06 0.05 0.06 0.04 0.02 0.00 0.00 0.01 0.01 0.02 0.02
0.07 0.08 0.07 0.06 0.05 0.05 0.07 0.08 0.07 0.07 0.06 0.05 0.04 0.03 0.02 0.02 0.03 0.03 0.04 0.04 0.04 0.04 0.04 0.05 0.04 0.05 0.06 0.06 0.07 0.05 0.05 0.07 0.06 0.05 0.07 0.06 0.06 0.05 0.01 0.01 0.02 0.02 0.03
0.06 0.06 0.05 0.04 0.03 0.05 0.07 0.09 0.06 0.05 0.05 0.04 0.03 0.02 0.03 0.03 0.02 0.04 0.04 0.03 0.04 0.04 0.04 0.06 0.06 0.07 0.09 0.09 0.15 0.08 0.06 0.05 0.04 0.04 0.05 0.05 0.07 0.05 0.04 0.03 0.02 0.03 0.04
0.03 0.03 0.05 0.04 0.03 0.05 0.09 0.11 0.08 0.04 0.04 0.03 0.02 0.01 0.02 0.03 0.04 0.06 0.05 0.04 0.03 0.06 0.06 0.04 0.08 0.11 0.11 0.09 0.07 0.07 0.07 0.07 0.06 0.04 0.03 0.03 0.03 0.04 0.04 0.04 0.02 0.02 0.02
0.03 0.03 0.04 0.03 0.03 0.05 0.10 0.13 0.11 0.05 0.04 0.04 0.03 0.02 0.02 0.03 0.03 0.05 0.05 0.05 0.05 0.08 0.08 0.07 0.08 0.09 0.09 0.06 0.04 0.07 0.08 0.12 0.08 0.06 0.04 0.03 0.03 0.02 0.03 0.05 0.05 0.04 0.02
0.03 0.03 0.02 0.04 0.05 0.06 0.09 0.11 0.13 0.09 0.06 0.03 0.02 0.02 0.01 0.03 0.04 0.05 0.04 0.06 0.06 0.07 0.07 0.08 0.10 0.09 0.08 0.05 0.06 0.07 0.06 0.06 0.05 0.05 0.04 0.03 0.02 0.02 0.02 0.03 0.05 0.05 0.04
0.01 0.02 0.03 0.04 0.05 0.05 0.07 0.08 0.08 0.07 0.06 0.05 0.03 0.02 0.01 0.02 0.03 0.04 0.05 0.05 0.06 0.07 0.09 0.09 0.09 0.09 0.08 0.06 0.07 0.09 0.09 0.09 0.08 0.05 0.03 0.02 0.02 0.02 0.03 0.03 0.03 0.04 0.05
0.01 0.01 0.03 0.04 0.05 0.04 0.04 0.06 0.08 0.08 0.07 0.06 0.05 0.03 0.02 0.02 0.02 0.02 0.04 0.04 0.06 0.07 0.09 0.09 0.09 0.08 0.08 0.08 0.07 0.09 0.10 0.10 0.07 0.05 0.03 0.03 0.02 0.03 0.03 0.03 0.03 0.03 0.03
0.01 0.02 0.02 0.03 0.04 0.04 0.04 0.05 0.07 0.07 0.07 0.06 0.05 0.05 0.03 0.02 0.02 0.03 0.05 0.05 0.05 0.07 0.08 0.06 0.07 0.06 0.09 0.09 0.09 0.08 0.07 0.08 0.09 0.09 0.07 0.05 0.04 0.03 0.03 0.02 0.02 0.03 0.03
0.01 0.01 0.01 0.02 0.05 0.06 0.05 0.04 0.05 0.06 0.05 0.04 0.04 0.05 0.04 0.03 0.03 0.03 0.04 0.05 0.04 0.05 0.06 0.05 0.04 0.04 0.07 0.08 0.08 0.08 0.07 0.08 0.09 0.09 0.10 0.07 0.06 0.05 0.04 0.02 0.02 0.03 0.03
0.02 0.02 0.02 0.02 0.03 0.05 0.05 0.04 0.04 0.05 0.05 0.05 0.07 0.07 0.06 0.04 0.05 0.04 0.05 0.04 0.04 0.05 0.06 0.06 0.05 0.05 0.05 0.06 0.07 0.08 0.09 0.08 0.09 0.08 0.08 0.08 0.07 0.06 0.05 0.06 0.03 0.02 0.03
MSLP
1008.60 1008.48 1008.51 1008.72 1009.11 1009.61 1010.14 1010.60 1010.94 1011.13 1011.20 1011.20 1011.21 1011.28 1011.46 1011.72 1012.05 1012.39 1012.67 1012.87 1012.98 1013.00 1012.97 1012.93 1012.91 1012.92 1012.96 1013.02 1013.09 1013.14 1013.18 1013.23 1013.28 1013.37 1013.50 1013.66 1013.85 1014.04 1014.21 1014.35 1014.45 1014.53 1014.59
1008.51 1008.52 1008.66 1008.98 1009.45 1010.00 1010.53 1010.96 1011.25 1011.39 1011.42 1011.41 1011.43 1011.53 1011.74 1012.04 1012.38 1012.70 1012.95 1013.10 1013.16 1013.13 1013.08 1013.03 1013.02 1013.05 1013.13 1013.23 1013.33 1013.41 1013.47 1013.53 1013.60 1013.69 1013.82 1013.99 1014.19 1014.38 1014.55 1014.69 1014.79 1014.87 1014.93
1008.40 1008.52 1008.78 1009.20 1009.75 1010.33 1010.86 1011.27 1011.53 1011.64 1011.65 1011.64 1011.68 1011.81 1012.04 1012.34 1012.67 1012.96 1013.16 1013.24 1013.24 1013.16 1013.08 1013.02 1013.01 1013.08 1013.19 1013.32 1013.45 1013.55 1013.63 1013.70 1013.77 1013.88 1014.02 1014.20 1014.40 1014.61 1014.80 1014.95 1015.07 1015.16 1015.24
1008.30 1008.52 1008.88 1009.39 1009.99 1010.61 1011.14 1011.54 1011.78 1011.88 1011.89 1011.90 1011.96 1012.12 1012.36 1012.66 1012.95 1013.18 1013.31 1013.33 1013.26 1013.14 1013.02 1012.95 1012.95 1013.03 1013.16 1013.31 1013.45 1013.56 1013.65 1013.72 1013.80 1013.91 1014.06 1014.26 1014.48 1014.72 1014.93 1015.12 1015.27 1015.40 1015.51
1008.25 1008.55 1008.99 1009.57 1010.22 1010.85 1011.39 1011.78 1012.01 1012.11 1012.14 1012.18 1012.27 1012.44 1012.69 1012.97 1013.22 1013.39 1013.45 1013.39 1013.26 1013.10 1012.96 1012.88 1012.89 1012.97 1013.11 1013.26 1013.39 1013.49 1013.56 1013.62 1013.70 1013.81 1013.98 1014.21 1014.46 1014.73 1014.99 1015.22 1015.42 1015.59 1015.75
1008.30 1008.67 1009.17 1009.79 1010.46 1011.09 1011.62 1012.00 1012.23 1012.34 1012.40 1012.46 1012.58 1012.77 1013.01 1013.26 1013.46 1013.57 1013.56 1013.45 1013.27 1013.08 1012.93 1012.86 1012.87 1012.96 1013.09 1013.21 1013.32 1013.38 1013.42 1013.46 1013.53 1013.65 1013.84 1014.09 1014.39 1014.70 1015.00 1015.28 1015.53 1015.74 1015.94
1008.49 1008.91 1009.45 1010.09 1010.75 1011.37 1011.88 1012.23 1012.45 1012.57 1012.64 1012.72 1012.86 1013.06 1013.28 1013.50 1013.65 1013.70 1013.64 1013.48 1013.28 1013.09 1012.95 1012.89 1012.92 1013.01 1013.12 1013.21 1013.28 1013.30 1013.30 1013.31 1013.37 1013.50 1013.71 1013.99 1014.32 1014.67 1015.02 1015.33 1015.60 1015.85 1016.08
1008.85 1009.30 1009.86 1010.50 1011.14 1011.72 1012.17 1012.49 1012.68 1012.78 1012.85 1012.95 1013.09 1013.28 1013.49 1013.67 1013.77 1013.77 1013.67 1013.49 1013.29 1013.11 1013.00 1012.97 1013.01 1013.10 1013.20 1013.27 1013.29 1013.27 1013.23 1013.21 1013.26 1013.39 1013.62 1013.93 1014.29 1014.68 1015.04 1015.37 1015.65 1015.90 1016.13
1009.36 1009.85 1010.43 1011.04 1011.63 1012.14 1012.53 1012.78 1012.92 1012.99 1013.04 1013.13 1013.26 1013.44 1013.61 1013.75 1013.81 1013.77 1013.64 1013.45 1013.26 1013.11 1013.04 1013.04 1013.12 1013.22 1013.31 1013.35 1013.34 1013.28 1013.20 1013.16 1013.20 1013.34 1013.59 1013.92 1014.30 1014.70 1015.07 1015.39 1015.65 1015.88 1016.08
1009.99 1010.52 1011.10 1011.68 1012.22 1012.64 1012.94 1013.10 1013.17 1013.19 1013.21 1013.27 1013.38 1013.53 1013.66 1013.76 1013.78 1013.71 1013.56 1013.37 1013.20 1013.08 1013.05 1013.09 1013.19 1013.31 1013.39 1013.42 1013.38 1013.29 1013.19 1013.13 1013.17 1013.31 1013.57 1013.92 1014.31 1014.70 1015.06 1015.36 1015.59 1015.77 1015.92
1010.66 1011.24 1011.83 1012.38 1012.84 1013.18 1013.38 1013.45 1013.44 1013.40 1013.37 1013.40 1013.47 1013.59 1013.69 1013.75 1013.73 1013.63 1013.46 1013.28 1013.12 1013.03 1013.02 1013.09 1013.21 1013.33 1013.41 1013.43 1013.36 1013.25 1013.14 1013.07 1013.10 1013.25 1013.51 1013.87 1014.26 1014.65 1014.99 1015.26 1015.45 1015.58 1015.68
1011.32 1011.93 1012.53 1013.06 1013.46 1013.71 1013.82 1013.80 1013.72 1013.61 1013.54 1013.53 1013.58 1013.66 1013.73 1013.76 1013.71 1013.58 1013.40 1013.21 1013.05 1012.97 1012.97 1013.05 1013.18 1013.29 1013.36 1013.36 1013.27 1013.15 1013.02 1012.94 1012.96 1013.10 1013.36 1013.72 1014.11 1014.49 1014.82 1015.07 1015.24 1015.33 1015.39
1011.86 1012.52 1013.13 1013.63 1013.99 1014.18 1014.22 1014.14 1014.00 1013.85 1013.75 1013.71 1013.73 1013.79 1013.83 1013.83 1013.75 1013.61 1013.41 1013.21 1013.04 1012.95 1012.94 1013.01 1013.11 1013.20 1013.24 1013.21 1013.10 1012.95 1012.80 1012.70 1012.71 1012.84 1013.09 1013.44 1013.83 1014.22 1014.55 1014.80 1014.96 1015.04 1015.09
1012.24 1012.93 1013.55 1014.04 1014.37 1014.53 1014.54 1014.43 1014.27 1014.11 1013.99 1013.94 1013.95 1013.98 1014.01 1013.98 1013.89 1013.72 1013.51 1013.29 1013.10 1012.98 1012.94 1012.97 1013.03 1013.08 1013.08 1013.01 1012.87 1012.69 1012.51 1012.39 1012.36 1012.47 1012.71 1013.04 1013.43 1013.82 1014.17 1014.44 1014.63 1014.73 1014.79
1012.43 1013.13 1013.76 1014.25 1014.58 1014.75 1014.76 1014.67 1014.52 1014.37 1014.26 1014.21 1014.21 1014.24 1014.24 1014.20 1014.09 1013.91 1013.68 1013.44 1013.23 1013.08 1013.00 1012.97 1012.98 1012.97 1012.92 1012.81 1012.63 1012.41 1012.20 1012.04 1011.97 1012.04 1012.24 1012.55 1012.93 1013.33 1013.71 1014.02 1014.26 1014.41 1014.51
1012.43 1013.12 1013.74 1014.25 1014.61 1014.81 1014.88 1014.84 1014.74 1014.63 1014.54 1014.50 1014.49 1014.50 1014.49 1014.43 1014.31 1014.12 1013.88 1013.63 1013.40 1013.21 1013.09 1013.01 1012.97 1012.91 1012.81 1012.65 1012.43 1012.18 1011.92 1011.71 1011.60 1011.61 1011.76 1012.02 1012.38 1012.78 1013.18 1013.54 1013.84 1014.06 1014.21
1012.28 1012.94 1013.56 1014.09 1014.49 1014.76 1014.90 1014.94 1014.91 1014.85 1014.80 1014.76 1014.75 1014.73 1014.69 1014.61 1014.47 1014.28 1014.04 1013.79 1013.55 1013.35 1013.20 1013.09 1012.99 1012.89 1012.76 1012.57 1012.32 1012.04 1011.74 1011.49 1011.32 1011.26 1011.34 1011.54 1011.84 1012.22 1012.62 1013.00 1013.34 1013.62 1013.83
1012.07 1012.68 1013.28 1013.82 1014.27 1014.61 1014.84 1014.97 1015.02 1015.02 1015.00 1014.96 1014.92 1014.87 1014.79 1014.68 1014.52 1014.33 1014.10 1013.87 1013.64 1013.45 1013.29 1013.16 1013.05 1012.93 1012.78 1012.58 1012.32 1012.02 1011.71 1011.41 1011.18 1011.05 1011.03 1011.14 1011.36 1011.67 1012.03 1012.40 1012.76 1013.07 1013.32
1011.84 1012.40 1012.97 1013.52 1014.01 1014.42 1014.73 1014.95 1015.07 1015.12 1015.11 1015.05 1014.97 1014.87 1014.75 1014.60 1014.44 1014.25 1014.05 1013.85 1013.66 1013.49 1013.35 1013.24 1013.13 1013.02 1012.87 1012.68 1012.44 1012.15 1011.83 1011.51 1011.22 1011.01 1010.89 1010.87 1010.97 1011.17 1011.44 1011.75 1012.07 1012.37 1012.63
1011.66 1012.16 1012.69 1013.23 1013.74 1014.20 1014.58 1014.86 1015.04 1015.12 1015.10 1015.02 1014.89 1014.74 1014.57 1014.40 1014.22 1014.05 1013.89 1013.74 1013.60 1013.49 1013.39 1013.31 1013.23 1013.14 1013.02 1012.86 1012.65 1012.39 1012.09 1011.76 1011.44 1011.14 1010.91 1010.76 1010.70 1010.74 1010.87 1011.06 1011.30 1011.54 1011.77
1011.53 1011.97 1012.46 1012.97 1013.48 1013.96 1014.38 1014.70 1014.90 1014.99 1014.97 1014.86 1014.68 1014.48 1014.28 1014.09 1013.92 1013.78 1013.67 1013.59 1013.52 1013.46 1013.42 1013.37 1013.33 1013.28 1013.20 1013.09 1012.93 1012.72 1012.45 1012.14 1011.79 1011.43 1011.09 1010.79 1010.56 1010.42 1010.36 1010.39 1010.49 1010.63 1010.80
1011.41 1011.82 1012.25 1012.73 1013.21 1013.68 1014.10 1014.43 1014.65 1014.74 1014.70 1014.57 1014.36 1014.14 1013.92 1013.73 1013.59 1013.50 1013.45 1013.44 1013.44 1013.45 1013.45 1013.45 1013.44 1013.42 1013.38 1013.32 1013.22 1013.07 1012.86 1012.57 1012.22 1011.82 1011.39 1010.96 1010.56 1010.21 1009.95 1009.79 1009.71 1009.72 1009.79
1011.26 1011.64 1012.03 1012.45 1012.90 1013.33 1013.73 1014.05 1014.26 1014.34 1014.30 1014.16 1013.96 1013.73 1013.53 1013.37 1013.28 1013.25 1013.27 1013.33 1013.39 1013.45 1013.50 1013.53 1013.54 1013.54 1013.53 1013.51 1013.46 1013.38 1013.23 1013.00 1012.67 1012.26 1011.77 1011.23 1010.68 1010.15 1009.69 1009.32 1009.05 1008.91 1008.86
1010.97 1011.35 1011.72 1012.09 1012.48 1012.87 1013.23 1013.53 1013.73 1013.81 1013.78 1013.66 1013.49 1013.30 1013.13 1013.03 1013.00 1013.04 1013.13 1013.25 1013.37 1013.47 1013.54 1013.57 1013.59 1013.59 1013.59 1013.60 1013.60 1013.57 1013.49 1013.33 1013.06 1012.66 1012.15 1011.55 1010.89 1010.22 1009.59 1009.03 1008.59 1008.28 1008.11
1010.51 1010.91 1011.26 1011.60 1011.95 1012.29 1012.61 1012.88 1013.08 1013.18 1013.18 1013.10 1012.97 1012.84 1012.74 1012.70 1012.74 1012.84 1013.00 1013.17 1013.33 1013.45 1013.52 1013.55 1013.55 1013.54 1013.54 1013.55 1013.58 1013.61 1013.59 1013.50 1013.30 1012.96 1012.48 1011.87 1011.16 1010.40 1009.64 1008.94 1008.35 1007.90 1007.60
1009.84 1010.28 1010.64 1010.96 1011.27 1011.58 1011.88 1012.14 1012.35 1012.48 1012.52 1012.50 1012.44 1012.37 1012.34 1012.36 1012.46 1012.61 1012.81 1013.01 1013.19 1013.33 1013.40 1013.41 1013.39 1013.35 1013.33 1013.34 1013.39 1013.45 1013.49 1013.48 1013.36 1013.10 1012.69 1012.12 1011.42 1010.63 1009.82 1009.03 1008.33 1007.76 1007.34
Thickness
5807 5806 5803 5802 5801 5800 5798 5797 5796 5795 5793 5792 5791 5789 5787 5785 5784 5782 5781 5779 5777 5776 5774 5773 5772 5771 5770 5769 5768 5767 5766 5765 5764 5763 5761 5760 5759 5758 5757 5756 5756 5754 5753
5810 5806 5802 5802 5800 5799 5798 5797 5795 5794 5792 5791 5790 5788 5786 5784 5783 5781 5780 5778 5776 5775 5773 5772 5771 5770 5768 5767 5767 5766 5766 5764 5763 5762 5761 5759 5758 5757 5756 5756 5755 5754 5753
5811 5806 5802 5801 5799 5798 5797 5795 5794 5793 5791 5790 5789 5787 5785 5784 5782 5781 5779 5778 5776 5774 5772 5771 5770 5769 5768 5767 5766 5765 5765 5764 5763 5761 5761 5760 5758 5757 5756 5755 5754 5753 5752
5812 5807 5803 5800 5798 5797 5796 5794 5793 5792 5790 5789 5787 5786 5785 5783 5782 5780 5779 5777 5775 5774 5772 5771 5770 5769 5768 5767 5766 5765 5764 5764 5763 5762 5762 5761 5759 5756 5755 5754 5753 5752 5751
5812 5806 5801 5799 5798 5796 5795 5793 5792 5791 5789 5787 5786 5785 5784 5783 5782 5781 5779 5777 5775 5774 5773 5771 5770 5769 5768 5767 5766 5765 5765 5764 5764 5763 5763 5761 5759 5757 5755 5753 5752 5751 5750
5811 5806 5801 5799 5796 5795 5794 5792 5791 5789 5788 5787 5785 5784 5784 5783 5783 5781 5779 5778 5776 5774 5773 5772 5771 5769 5768 5767 5767 5766 5765 5765 5764 5765 5764 5762 5759 5757 5755 5753 5752 5751 5750
5811 5805 5800 5798 5796 5794 5793 5791 5790 5788 5787 5786 5785 5784 5784 5783 5783 5782 5779 5777 5776 5774 5773 5772 5771 5770 5769 5768 5767 5767 5766 5766 5766 5766 5764 5762 5760 5758 5755 5754 5752 5751 5750
5812 5806 5800 5797 5796 5794 5792 5790 5789 5787 5786 5785 5784 5783 5783 5782 5782 5780 5779 5777 5776 5775 5774 5772 5771 5770 5769 5768 5768 5768 5767 5766 5767 5767 5765 5763 5760 5758 5756 5754 5753 5751 5750
5814 5808 5802 5799 5796 5794 5792 5790 5788 5787 5786 5785 5784 5783 5782 5781 5780 5779 5778 5777 5776 5775 5774 5772 5771 5770 5769 5769 5769 5769 5768 5768 5767 5768 5766 5763 5761 5759 5756 5755 5753 5752 5750
5814 5810 5805 5802 5798 5796 5793 5791 5789 5788 5786 5785 5784 5783 5781 5781 5780 5779 5779 5778 5776 5775 5774 5773 5772 5771 5770 5770 5770 5769 5769 5769 5769 5769 5767 5764 5762 5759 5757 5755 5753 5752 5750
5810 5810 5808 5805 5802 5800 5796 5793 5790 5788 5787 5786 5784 5783 5782 5782 5781 5780 5780 5778 5777 5776 5775 5774 5773 5772 5771 5771 5770 5770 5770 5770 5772 5771 5769 5765 5763 5760 5757 5755 5753 5752 5751
5806 5808 5809 5807 5804 5802 5800 5795 5793 5792 5789 5788 5787 5785 5784 5784 5783 5783 5780 5779 5778 5777 5776 5775 5774 5773 5772 5772 5772 5771 5771 5773 5774 5773 5769 5766 5763 5761 5758 5756 5754 5752 5751
5809 5809 5809 5807 5804 5802 5800 5798 5796 5795 5792 5790 5788 5787 5786 5785 5784 5783 5781 5779 5778 5777 5777 5776 5776 5775 5775 5775 5775 5775 5775 5776 5775 5772 5768 5766 5764 5762 5759 5756 5754 5753 5751
5810 5810 5810 5808 5805 5802 5801 5799 5798 5796 5793 5791 5789 5789 5787 5786 5785 5784 5782 5781 5780 5779 5779 5778 5778 5778 5777 5777 5777 5776 5777 5777 5775 5772 5768 5766 5764 5763 5760 5757 5755 5753 5752
5811 5810 5809 5808 5805 5802 5800 5799 5798 5796 5794 5792 5791 5789 5788 5787 5785 5785 5784 5783 5782 5781 5780 5779 5778 5778 5777 5778 5777 5778 5777 5776 5774 5773 5769 5766 5764 5762 5760 5758 5756 5754 5752
5813 5812 5810 5808 5805 5802 5800 5799 5798 5797 5795 5794 5791 5790 5788 5787 5786 5785 5783 5783 5782 5781 5780 5779 5779 5777 5777 5778 5777 5778 5777 5776 5775 5772 5769 5766 5764 5762 5760 5758 5757 5754 5752
5815 5813 5811 5809 5806 5803 5801 5799 5798 5797 5796 5794 5791 5790 5788 5787 5786 5785 5783 5782 5781 5781 5781 5780 5779 5778 5777 5777 5776 5777 5777 5777 5775 5773 5770 5768 5765 5762 5761 5758 5757 5755 5753
5818 5814 5812 5812 5807 5803 5800 5799 5798 5797 5796 5794 5792 5790 5788 5787 5786 5785 5783 5782 5781 5782 5781 5779 5778 5776 5775 5775 5774 5777 5778 5777 5776 5774 5773 5770 5768 5765 5762 5759 5757 5756 5754
5820 5816 5812 5810 5807 5804 5801 5799 5797 5797 5796 5795 5793 5791 5789 5787 5786 5785 5784 5782 5782 5781 5780 5779 5777 5775 5773 5773 5774 5776 5776 5776 5777 5776 5774 5772 5769 5767 5764 5761 5759 5756 5754
5822 5818 5813 5810 5807 5805 5802 5799 5797 5796 5795 5795 5793 5791 5789 5787 5786 5785 5784 5783 5782 5780 5778 5777 5775 5775 5774 5773 5775 5775 5775 5776 5776 5774 5773 5773 5770 5768 5766 5763 5759 5756 5754
5822 5817 5813 5809 5806 5804 5800 5797 5794 5792 5793 5793 5793 5791 5789 5788 5786 5785 5784 5783 5782 5780 5778 5777 5775 5773 5773 5774 5770 5768 5771 5775 5774 5773 5773 5771 5770 5768 5766 5764 5760 5758 5756
5820 5816 5812 5809 5806 5804 5802 5800 5798 5796 5795 5794 5794 5792 5790 5788 5786 5786 5783 5782 5782 5779 5777 5775 5774 5771 5771 5772 5766 5761 5758 5761 5767 5773 5771 5769 5768 5768 5765 5764 5761 5759 5757
5819 5815 5812 5808 5806 5804 5803 5801 5798 5795 5793 5792 5790 5789 5790 5789 5787 5785 5783 5782 5780 5778 5775 5774 5772 5769 5766 5768 5768 5760 5751 5748 5756 5764 5767 5767 5766 5765 5763 5762 5761 5759 5756
5820 5816 5813 5809 5805 5803 5801 5798 5794 5790 5787 5789 5789 5789 5789 5788 5787 5785 5783 5781 5779 5777 5775 5773 5772 5769 5765 5762 5763 5764 5760 5757 5749 5749 5757 5762 5763 5761 5761 5761 5759 5757 5755
5821 5817 5813 5808 5804 5802 5800 5797 5794 5791 5790 5790 5790 5788 5787 5787 5786 5784 5782 5779 5777 5775 5773 5771 5770 5767 5765 5761 5759 5758 5757 5756 5753 5746 5744 5750 5754 5758 5759 5758 5757 5755 5754
5821 5817 5812 5806 5802 5800 5798 5796 5793 5790 5788 5786 5785 5783 5784 5784 5784 5783 5781 5778 5776 5773 5771 5769 5767 5765 5763 5760 5758 5756 5753 5750 5748 5746 5742 5743 5745 5750 5754 5755 5753 5752 5751